Lid_Strength_Index
8 7 7 7 7 7 7 7 6 6 5 5 4 3 2 1 0 1 1 1 1 1 1 1 1 1 2 3 3 3 3 3 5 4 3 1 2 4 5 6 5 4 5
8 8 8 8 7 7 7 7 6 6 6 6 5 5 4 3 2 1 1 1 2 2 2 1 2 1 2 2 2 3 3 4 4 5 4 3 4 4 4 6 6 6 6
8 8 8 8 8 8 8 8 7 7 6 6 6 6 6 5 4 4 3 2 1 1 1 2 2 2 2 2 2 2 3 3 3 4 4 3 3 6 6 6 7 7 8
9 9 9 9 9 9 9 8 8 8 7 7 7 7 7 6 5 4 5 5 4 3 2 1 1 2 2 2 2 2 2 2 3 3 4 4 5 11 9 8 12 14 10
10 10 11 11 10 10 10 9 9 8 9 8 8 8 7 7 7 8 8 8 7 6 5 4 3 4 7 4 2 2 2 3 3 4 4 4 10 14 12 9 9 10 15
12 12 12 12 12 12 11 11 11 10 10 9 9 9 9 9 9 9 9 9 8 8 7 6 5 6 4 6 7 7 4 3 3 4 4 5 5 10 7 9 11 15 15
14 14 14 14 14 14 13 12 12 12 11 11 10 9 9 9 8 8 9 8 8 7 7 6 6 5 7 4 4 6 6 7 6 3 4 3 4 7 8 10 11 12 11
15 15 15 15 15 14 14 13 12 11 11 11 10 10 9 9 9 8 8 8 7 7 7 7 6 6 5 6 5 6 5 4 3 4 4 4 3 4 5 8 10 13 15
17 17 16 16 16 15 15 14 13 12 12 12 11 10 10 9 9 8 8 8 8 8 7 7 7 8 8 7 8 9 9 8 5 6 6 7 8 8 8 12 13 14 16
18 18 17 17 17 16 16 15 14 13 13 12 12 10 10 9 9 8 8 9 9 9 8 8 9 9 8 8 8 9 10 9 9 8 7 8 8 8 10 9 11 13 14
20 19 19 18 18 17 16 16 16 15 14 13 12 10 10 10 9 9 9 9 9 9 9 9 8 8 8 8 8 8 9 8 9 10 9 10 12 12 10 11 11 11 13
21 22 21 19 19 18 18 17 17 16 15 13 12 12 11 10 10 10 10 9 9 10 10 9 9 8 8 7 8 8 7 7 9 10 12 12 13 14 15 15 13 15 14
23 23 22 21 20 20 19 19 18 17 15 15 15 14 13 11 11 11 11 10 10 10 10 10 9 9 8 8 8 8 9 9 9 11 11 11 13 15 17 19 18 18 19
24 24 22 22 22 20 20 19 19 17 17 18 17 16 14 13 12 12 12 11 11 11 11 10 10 9 8 7 9 8 8 8 10 10 11 13 15 17 17 18 17 16 17
25 24 24 23 22 22 21 20 19 18 18 18 18 15 17 17 14 13 13 13 13 12 12 12 11 10 9 9 8 8 8 9 10 10 12 14 15 15 16 16 16 16 19
26 25 24 24 24 23 22 21 19 19 18 18 17 16 16 15 14 14 14 13 13 13 14 14 13 11 10 10 9 9 8 9 9 9 10 12 13 14 15 17 17 16 17
27 27 26 25 24 24 23 23 24 22 20 19 18 17 17 16 16 15 15 15 14 14 15 14 12 11 10 10 10 10 10 9 9 10 10 10 11 12 14 16 17 18 19
28 27 26 25 24 24 24 24 24 25 25 23 20 19 18 17 17 17 17 16 18 16 15 15 14 12 11 10 10 10 10 9 9 10 10 11 11 12 13 14 16 18 20
27 26 25 25 25 25 25 25 24 24 25 25 24 22 21 19 19 19 18 19 19 19 18 17 16 15 13 11 10 10 10 9 9 10 11 11 12 12 13 13 15 16 20
27 27 27 27 26 26 25 25 25 25 25 25 25 25 23 23 24 22 21 20 21 21 20 19 18 17 16 15 12 10 10 9 9 9 10 10 11 12 13 14 14 19 20
27 27 27 27 26 26 26 26 26 26 26 26 26 24 22 23 24 23 23 22 22 22 21 20 20 19 18 17 15 12 10 10 9 9 10 10 11 13 13 14 16 17 19
27 26 26 27 26 26 26 26 26 26 26 26 25 25 22 24 25 25 24 24 23 22 21 21 21 20 19 18 17 16 15 10 9 9 10 10 12 13 13 15 17 18 21
27 27 27 27 26 27 26 26 26 26 26 26 26 26 26 26 26 25 25 24 24 23 22 22 22 21 20 19 18 16 16 14 10 8 9 10 12 13 14 16 17 19 21
26 27 27 26 26 25 25 25 25 26 26 26 26 26 26 26 26 26 26 25 25 24 23 23 23 22 21 20 19 17 16 13 12 7 7 9 12 13 14 16 17 18 20
26 26 25 25 25 25 25 25 25 25 25 25 25 25 25 25 26 26 25 25 25 25 24 24 23 22 21 20 19 16 14 13 12 12 6 7 10 11 14 15 17 18 20
24 24 24 23 24 24 24 24 24 24 24 24 24 24 24 25 25 25 25 25 25 24 24 22 21 21 20 19 18 17 16 14 12 11 7 8 11 12 14 16 17 19 21